Wind_Speed
103 102 101 100 99 99 99 99 99 98 97 96 94 93 92 90 89 88 88 88 89 90 90 91 91 89 87 85 84 84 85 87 89 90 89 88 88 88 88 89 89 90 92 94 96 96 96 96 95 95 96 97 98 99 100 99 98 97 97 96 94 93 94 93 91 92 95 97 98 99 99 99 100 100
103 102 101 100 99 99 99 99 99 99 98 97 96 95 94 92 90 90 90 89 89 90 91 91 90 90 88 86 84 83 84 86 87 88 87 86 85 84 84 85 86 89 91 93 93 93 93 93 93 93 94 95 96 97 97 96 95 95 94 93 91 90 91 90 89 89 92 95 97 98 97 97 98 97
101 101 101 101 100 99 99 99 99 99 98 98 97 96 95 93 92 92 91 90 90 91 91 91 91 90 89 87 85 84 84 84 85 86 85 83 82 80 80 82 84 88 91 92 91 91 92 92 92 92 92 93 94 94 94 94 92 91 91 91 90 89 88 88 88 88 90 94 96 95 95 95 96 95
99 100 100 100 100 99 99 98 97 98 98 98 98 97 96 95 94 93 92 91 91 92 92 92 92 92 90 88 87 85 84 84 84 84 83 82 80 77 77 79 83 88 90 89 89 89 90 91 91 91 90 91 91 92 92 91 90 89 89 88 88 87 87 86 86 87 89 92 94 93 92 94 95 95
96 97 99 99 99 98 97 96 95 96 97 97 98 97 96 95 94 94 93 91 91 91 92 93 94 94 92 90 88 86 85 84 84 84 83 81 78 75 76 79 83 87 87 87 87 88 89 89 89 88 88 89 89 89 89 88 88 87 87 87 86 85 85 84 84 85 88 91 91 89 89 92 94 94
93 95 96 97 97 96 95 94 93 94 95 96 96 96 96 95 94 94 93 91 91 91 92 94 95 95 94 92 90 88 85 84 84 84 83 80 77 74 75 79 82 85 86 85 86 87 87 87 86 85 86 87 87 87 87 86 86 86 85 85 84 83 83 82 82 84 88 89 88 85 87 91 93 93
91 92 93 93 93 93 92 92 92 92 93 93 94 94 94 94 93 93 92 91 90 90 92 93 95 96 95 93 92 89 86 83 82 82 82 80 75 74 76 79 81 83 85 85 85 85 85 84 84 83 84 85 86 86 85 85 84 83 83 83 83 82 82 81 81 84 86 87 85 83 86 90 92 92
88 89 89 89 89 89 88 89 90 90 90 90 90 91 91 91 91 91 90 89 89 90 90 92 94 95 95 94 92 90 87 84 81 81 81 78 75 74 77 79 80 82 84 84 84 84 83 83 82 83 83 84 84 84 84 82 81 80 80 81 82 81 80 80 82 84 84 84 83 83 86 90 91 91
84 84 85 85 84 84 84 85 86 88 88 87 87 87 88 89 89 89 88 87 87 88 88 90 93 95 95 94 92 90 87 83 81 81 79 76 74 75 77 79 80 82 83 83 83 82 82 82 81 82 82 83 83 82 80 79 78 78 79 80 81 81 80 79 82 83 82 82 83 83 86 88 89 90
80 80 81 81 80 79 80 82 83 85 85 84 83 83 85 87 87 86 86 86 86 86 87 88 91 93 94 93 92 89 85 81 81 81 77 73 73 75 77 79 81 83 83 82 81 80 80 80 80 81 82 81 80 78 76 75 75 76 77 79 81 81 79 79 81 81 79 80 82 82 84 85 87 90
76 76 77 77 76 76 78 81 81 81 81 81 80 80 82 84 84 83 83 83 84 84 85 86 89 91 91 91 91 88 83 80 80 79 74 72 74 77 78 78 81 82 82 81 79 78 78 79 79 80 80 79 77 75 73 73 73 74 75 78 81 81 79 78 79 79 77 79 81 81 81 82 84 88
71 72 72 73 73 74 77 79 79 78 77 78 78 79 80 81 81 81 80 81 82 83 83 85 86 87 88 89 88 86 82 80 78 75 71 70 75 79 79 79 80 80 80 79 78 77 77 78 78 79 78 76 73 71 71 70 71 72 74 78 81 80 78 77 77 76 76 78 80 79 80 81 83 86
65 66 67 69 71 72 75 77 77 76 75 76 77 78 79 79 78 78 78 78 80 81 82 82 83 84 85 86 85 83 81 78 75 72 70 71 75 78 79 81 81 78 76 76 76 77 77 77 77 76 74 72 70 68 68 68 68 70 73 78 80 78 76 76 75 74 75 78 79 79 79 80 82 84
60 61 63 66 69 71 73 74 74 74 74 75 76 76 76 75 75 74 75 77 78 79 79 80 80 81 82 82 81 81 79 75 71 69 70 73 75 76 77 80 82 79 74 73 75 77 77 75 74 73 71 69 68 66 65 66 66 68 72 77 78 76 75 75 74 74 75 77 78 78 78 79 81 83
56 57 60 64 68 70 70 72 72 72 72 73 74 73 72 72 72 72 74 75 76 76 77 77 78 78 78 78 78 78 75 71 68 69 72 74 74 75 76 78 81 79 74 71 72 75 77 73 70 70 70 67 65 64 65 65 65 67 70 74 75 73 72 72 73 73 74 75 76 77 77 78 80 82
53 54 57 63 66 67 68 69 70 70 70 71 71 70 69 70 70 71 71 72 73 73 74 75 75 74 74 75 75 73 69 67 68 70 73 73 72 74 76 77 79 78 74 70 69 72 76 73 67 68 70 66 63 64 65 65 64 64 66 69 70 70 69 70 72 72 72 73 74 75 75 77 79 81
53 53 56 60 62 63 65 67 68 68 67 68 68 67 67 68 68 68 69 70 70 70 70 71 71 71 70 71 71 68 64 66 69 71 72 72 71 72 74 75 77 76 72 68 66 68 74 72 66 67 69 65 63 64 64 63 61 61 62 64 66 67 67 69 71 70 70 72 73 73 74 75 78 80
51 52 55 57 58 60 63 65 66 66 65 64 65 65 65 65 66 66 66 66 66 66 67 67 68 68 67 67 66 63 63 66 69 70 71 71 70 71 73 74 75 74 69 64 60 63 70 71 64 64 67 65 63 64 62 60 57 56 60 62 63 65 66 68 69 68 68 70 71 72 73 75 77 80
49 50 52 54 56 60 63 64 64 62 61 61 62 63 63 62 61 61 61 62 62 62 63 63 65 65 62 61 61 62 64 66 67 68 69 69 69 70 72 73 73 70 65 59 55 58 67 67 60 60 64 64 63 63 60 55 53 53 58 62 63 64 66 67 67 66 66 67 69 70 72 74 77 79
47 48 51 53 57 60 61 60 59 58 58 59 60 60 58 56 56 56 57 58 58 58 59 61 62 59 56 57 59 62 63 64 65 67 67 67 67 68 70 71 71 68 61 55 53 55 63 64 56 57 62 62 62 63 57 50 49 52 57 61 63 64 64 64 63 62 63 65 66 67 70 74 77 79
45 47 50 53 55 57 56 55 55 55 55 55 54 54 53 52 52 51 52 53 54 56 57 57 55 53 54 56 59 60 61 62 64 65 65 65 66 66 67 67 68 67 61 55 52 53 58 59 54 53 58 61 62 61 54 47 47 51 57 61 62 62 61 59 58 59 60 62 63 65 69 73 77 79
43 44 47 49 51 51 51 51 52 52 51 50 49 48 48 47 47 47 49 51 53 53 52 50 50 51 54 56 57 58 60 61 61 62 63 64 65 66 65 64 64 65 61 55 51 52 54 55 52 50 54 59 62 58 50 45 45 50 58 61 59 58 57 55 55 56 58 60 62 64 68 72 76 79
40 42 44 46 47 48 49 49 48 46 44 43 43 42 42 43 45 47 49 49 48 47 46 47 50 52 53 55 56 57 58 59 59 60 61 63 64 65 64 62 60 61 60 55 50 50 51 52 51 48 49 56 62 56 45 40 44 51 57 57 54 53 54 54 54 54 56 58 60 63 67 71 75 77
39 41 41 42 44 45 45 44 41 39 38 38 39 40 42 44 45 45 44 43 43 43 45 48 50 51 52 54 55 55 56 57 58 59 60 61 62 62 62 60 57 57 57 53 49 48 50 52 51 48 45 50 58 57 43 34 41 53 55 50 49 51 52 52 52 53 55 57 59 62 66 69 73 76
36 36 36 37 39 40 39 38 36 35 36 37 39 40 41 41 40 39 39 40 42 44 46 48 49 50 51 52 53 54 54 55 56 58 59 59 60 59 58 57 56 55 54 51 47 45 48 52 51 47 45 46 50 53 46 34 38 50 51 45 46 50 49 48 50 52 54 56 58 61 65 68 71 74
31 31 32 34 35 36 35 35 35 35 36 37 37 36 36 36 36 37 39 41 43 44 46 47 48 49 50 51 51 52 53 55 56 56 57 57 57 56 54 53 54 55 53 50 45 42 45 50 49 45 45 47 45 46 47 40 38 46 48 43 45 47 45 46 49 51 53 56 58 60 64 66 70 74
28 30 31 32 32 32 32 33 33 33 33 32 32 32 33 34 36 38 40 41 43 44 45 46 47 48 48 49 50 51 52 53 54 54 54 54 53 52 51 51 52 53 52 49 45 42 43 46 46 42 42 46 43 41 44 43 40 43 45 43 43 44 44 46 48 50 52 55 57 60 62 65 70 75
27 27 28 28 29 29 29 28 28 28 28 29 30 32 33 35 36 38 39 41 42 43 43 44 45 46 48 48 50 50 51 51 51 51 50 50 50 50 48 48 49 50 50 49 46 44 42 42 44 41 40 42 42 40 41 42 41 42 42 41 41 42 43 44 46 48 52 54 56 58 62 65 71 76
23 24 24 25 25 25 25 25 26 27 28 30 31 32 34 35 36 38 39 40 40 41 42 43 44 46 47 48 49 49 49 49 48 48 47 46 47 47 45 45 46 47 48 47 46 44 41 40 41 41 39 38 39 39 39 40 40 40 40 39 40 40 41 43 45 48 51 53 55 58 63 68 73 78
21 22 22 23 23 24 25 26 27 28 29 30 31 32 33 35 36 37 37 38 39 40 41 42 43 44 45 46 47 47 46 46 45 45 44 43 43 42 42 42 42 43 44 45 45 44 40 37 38 39 37 36 37 37 37 38 38 38 37 38 38 39 40 42 45 49 51 53 56 60 64 68 74 79
21 22 22 23 24 25 25 26 27 27 28 29 31 32 33 34 34 35 36 37 38 39 40 41 42 42 43 43 44 44 44 43 43 43 42 41 39 38 38 39 40 39 38 40 43 44 40 36 35 37 36 35 35 36 36 36 36 36 36 36 37 38 39 42 46 49 52 54 57 61 65 69 74 79
20 21 22 23 23 24 24 24 25 26 28 29 30 30 31 32 33 34 35 36 37 38 39 39 39 40 40 41 41 42 42 41 41 41 40 39 38 36 36 37 38 37 36 35 36 39 40 37 34 33 34 34 34 34 34 34 34 34 34 35 36 37 40 43 47 50 53 55 59 62 65 70 75 80
19 20 20 21 21 22 22 23 24 26 26 27 28 29 30 32 33 34 34 35 36 36 36 37 37 38 38 39 39 39 40 40 40 39 38 37 37 35 34 35 37 37 36 35 33 33 36 37 35 32 32 32 33 33 33 33 33 33 33 34 36 38 41 45 48 51 54 57 60 63 67 71 76 81
17 18 18 19 20 21 22 22 23 24 25 26 28 29 30 31 32 32 33 33 33 34 34 35 36 36 37 37 37 38 38 38 38 38 37 36 36 35 33 33 35 35 34 35 35 32 31 34 34 32 31 31 31 32 32 32 32 32 33 34 36 39 42 46 49 52 54 58 61 64 68 73 77 81
15 16 17 18 19 20 20 21 22 24 25 26 27 28 29 29 30 30 30 31 31 32 33 33 34 35 35 36 36 37 37 36 36 36 37 36 35 35 34 33 33 33 32 33 34 33 31 31 31 31 30 30 30 31 31 31 31 32 33 34 37 40 43 46 49 52 55 58 62 66 69 73 78 81
15 16 17 17 18 19 20 21 22 23 25 25 26 27 27 27 27 27 28 29 29 30 32 33 33 34 35 35 36 36 36 35 34 34 35 35 34 33 33 33 33 32 31 31 32 32 31 30 30 29 28 29 30 30 30 30 31 32 33 35 38 41 44 47 50 53 56 59 63 67 70 74 78 82
14 15 16 17 17 18 20 21 22 23 23 24 24 24 25 25 25 26 26 27 29 30 31 32 33 34 34 34 35 35 35 34 33 32 32 32 32 31 31 31 31 31 30 30 31 30 29 29 28 28 27 28 29 29 30 30 31 32 34 36 39 42 44 47 51 54 57 61 65 68 71 75 79 82
13 14 15 16 17 18 19 20 20 21 21 22 22 23 23 23 24 25 26 27 28 29 31 32 32 33 34 34 34 35 35 34 33 31 30 30 30 30 29 29 30 30 28 28 29 29 28 27 27 27 26 27 28 28 29 30 31 33 34 37 40 42 45 48 51 55 58 62 66 69 72 75 79 83
13 14 15 16 16 17 17 18 18 19 20 20 21 21 22 22 23 24 26 27 28 29 30 31 32 33 33 34 34 34 34 33 32 31 30 29 29 29 29 28 28 28 27 27 27 27 26 26 26 26 25 26 27 28 29 31 32 33 35 38 40 43 46 49 52 55 59 63 66 70 72 76 79 83
13 13 14 14 15 15 16 16 17 18 18 19 20 20 21 22 23 24 26 27 28 29 30 31 32 33 33 34 34 33 33 32 31 30 29 29 28 27 27 27 26 26 26 25 25 26 25 25 25 25 25 25 26 27 29 31 33 34 36 39 41 44 47 50 53 55 59 62 66 69 72 76 81 85
11 12 12 13 13 14 15 16 16 17 18 18 19 20 21 22 23 24 26 27 28 29 30 31 32 32 33 33 33 33 32 31 30 29 29 28 27 26 26 25 25 24 24 24 24 24 24 24 24 24 24 24 26 27 29 32 33 35 37 40 42 45 48 51 54 56 59 63 67 70 74 78 82 87
10 11 11 12 13 14 15 15 16 17 18 18 19 20 21 22 24 25 26 27 28 29 30 31 32 32 32 32 32 32 31 30 30 29 28 28 28 27 26 25 24 23 23 22 22 23 24 24 24 24 24 24 26 27 30 32 34 36 38 40 43 45 48 51 54 57 61 64 68 71 76 81 85 89
9 10 11 12 13 14 15 16 16 17 18 19 20 21 22 23 24 25 26 28 29 30 31 31 32 32 32 32 31 31 30 30 30 29 29 28 27 27 26 25 23 22 22 22 21 22 23 23 24 24 24 24 26 28 30 32 35 37 39 41 43 46 49 52 55 58 62 65 69 73 78 83 88 92
9 10 11 12 13 14 15 16 17 18 19 20 21 22 23 24 25 26 27 28 29 30 31 31 32 32 32 31 31 30 30 30 29 29 29 28 27 27 26 24 23 22 21 21 21 21 21 23 23 24 24 24 26 28 30 33 35 37 40 42 44 46 49 52 56 59 63 67 71 75 80 85 89 94
10 11 12 13 14 15 16 17 18 19 20 21 22 23 24 25 25 26 27 28 29 30 31 31 32 32 32 31 31 31 30 30 29 29 28 28 27 27 26 24 23 22 21 21 21 20 21 22 23 24 24 25 26 28 31 33 36 38 41 43 45 47 50 53 57 60 64 68 72 77 82 88 92 97
Wind_Direction
259 258 258 258 258 258 258 259 260 261 261 261 261 261 261 261 261 261 262 262 263 264 264 265 264 263 262 260 258 257 257 256 256 257 257 257 258 259 260 261 262 262 262 262 262 262 263 263 263 263 263 262 262 262 262 262 262 262 261 260 258 257 256 254 251 249 249 248 247 245 242 240 238 234
259 259 258 258 257 257 257 257 258 259 260 260 260 260 260 260 260 260 261 261 262 263 263 264 265 265 264 263 261 259 258 258 257 257 257 257 258 259 260 262 263 263 263 263 264 264 264 264 264 264 263 263 263 263 263 262 262 261 261 260 259 257 256 254 252 249 248 247 246 244 242 240 238 234
258 258 258 257 257 256 256 256 256 258 259 259 259 259 259 259 259 259 259 259 260 262 263 264 264 265 265 264 263 262 261 260 259 259 258 258 258 259 261 262 264 264 264 265 265 266 266 266 266 265 264 264 264 263 263 263 262 261 260 260 259 257 255 254 252 250 247 246 245 243 242 240 237 234
257 257 257 257 257 256 255 255 255 256 257 258 258 258 258 258 257 257 258 258 258 260 262 263 264 264 264 264 264 263 263 262 262 261 260 260 259 260 261 262 263 264 265 265 266 267 267 267 266 266 265 265 264 264 263 263 262 261 260 259 258 257 255 253 252 250 247 245 244 242 241 239 237 234
256 256 256 256 256 256 256 255 254 254 255 256 257 257 257 257 256 256 257 257 257 258 260 262 263 264 264 264 264 264 263 263 263 262 261 261 260 261 261 262 263 264 265 266 266 267 266 266 266 266 266 265 265 264 264 263 263 262 261 259 258 256 255 253 251 249 247 245 243 241 240 238 237 234
256 255 255 256 256 256 256 255 254 253 253 254 255 256 256 256 256 256 256 256 256 257 258 260 261 263 264 264 264 264 264 263 264 264 263 262 261 262 262 263 264 265 266 266 267 267 267 267 267 267 266 266 265 265 264 263 263 262 261 260 258 256 254 252 249 247 245 245 243 240 238 237 236 233
256 256 256 256 256 256 256 255 254 253 253 253 254 254 255 255 255 255 255 255 255 255 256 258 260 261 263 264 265 265 265 264 264 264 264 264 263 263 264 264 265 266 267 268 268 268 268 268 268 267 266 266 265 265 264 263 262 261 260 259 258 256 254 252 249 246 244 244 242 239 237 236 235 233
256 256 256 256 256 256 256 255 255 254 253 253 253 253 254 254 254 254 254 254 254 254 255 257 259 260 262 263 264 265 265 265 265 265 265 265 265 265 265 266 266 267 268 269 269 270 269 269 268 268 267 266 266 265 264 263 262 261 260 259 257 255 253 251 249 246 244 244 242 239 237 235 234 232
256 256 257 257 256 256 256 255 255 255 254 253 252 252 253 253 253 253 253 253 253 253 254 255 257 259 260 262 264 265 265 266 266 266 265 266 266 267 267 267 268 268 269 270 270 270 270 269 269 268 267 267 266 265 264 263 262 261 260 259 257 255 253 250 249 247 245 243 242 239 236 235 233 232
256 256 256 257 257 256 255 254 254 254 254 254 253 252 252 252 252 252 252 252 252 253 253 254 256 258 260 261 263 264 265 266 266 266 266 267 268 267 267 268 269 270 270 271 270 270 269 269 269 268 268 267 266 264 263 262 261 260 259 258 257 255 253 251 249 247 245 243 241 239 236 234 232 231
257 257 257 257 257 256 254 254 253 253 253 253 253 252 251 251 251 251 251 251 252 252 252 253 254 257 259 261 262 264 266 266 266 267 268 269 269 268 267 268 269 271 272 272 271 271 270 270 269 269 268 266 265 264 263 262 261 260 259 258 257 255 253 251 249 248 245 243 241 239 236 234 231 230
256 256 256 256 256 255 254 253 253 253 252 252 252 252 251 251 250 250 250 250 251 252 252 253 254 256 258 260 262 264 265 265 266 267 268 268 268 268 269 269 269 270 271 272 272 272 271 271 270 269 268 266 265 263 262 261 260 259 258 257 256 255 253 252 250 248 245 243 241 239 236 233 230 229
255 254 254 254 254 253 253 253 253 253 252 251 250 250 250 250 250 250 249 250 250 251 252 253 254 256 257 259 262 264 264 265 266 267 268 267 266 268 270 271 271 271 271 272 273 273 272 271 270 269 268 267 265 263 262 260 259 257 256 255 255 254 253 251 249 247 244 242 240 238 236 233 230 228
252 251 250 250 250 251 251 252 252 252 251 251 250 250 250 251 250 250 249 249 250 251 252 253 254 255 257 259 261 262 264 265 266 267 267 266 266 268 269 271 272 272 272 272 273 274 273 272 271 270 269 268 266 265 263 260 257 255 254 254 253 253 251 250 248 245 242 240 239 237 234 232 230 227
249 247 246 246 246 247 249 250 251 251 251 250 251 250 250 251 250 250 249 249 250 251 252 253 254 255 257 259 260 261 263 265 266 266 265 265 267 269 270 270 272 273 274 274 274 275 274 273 272 272 270 268 267 265 263 260 256 253 253 253 253 252 250 248 246 244 241 239 237 236 233 230 229 226
247 245 245 245 245 246 247 249 250 250 250 250 250 251 250 250 250 250 249 250 251 252 252 253 254 255 256 258 259 261 264 265 265 264 265 266 267 269 270 270 272 273 275 276 276 276 275 274 273 272 271 269 267 265 262 260 257 254 253 253 253 251 249 247 245 242 240 238 236 234 232 229 227 225
246 244 243 244 245 246 247 248 249 250 250 249 250 250 249 249 249 249 249 250 251 252 252 253 254 255 256 257 260 262 263 264 264 264 265 267 269 270 270 271 272 274 275 276 276 275 275 273 273 272 271 269 267 264 262 259 257 256 255 253 252 250 247 245 244 241 238 237 234 232 230 227 226 223
246 244 243 243 243 244 245 246 248 249 249 249 249 248 248 248 248 248 249 251 252 252 253 253 254 255 256 258 261 262 262 261 263 265 267 269 270 271 271 272 273 274 275 275 274 275 274 273 272 272 270 269 267 263 261 259 257 256 255 253 251 249 246 244 242 240 237 235 233 231 228 226 224 222
246 244 243 242 241 242 243 245 247 248 248 248 247 247 247 247 248 249 250 251 252 252 253 253 254 255 257 259 261 261 261 261 263 265 268 270 272 273 274 274 275 275 275 274 274 274 274 273 273 273 270 268 267 264 262 259 257 255 254 253 250 247 245 243 241 239 237 234 232 229 226 224 222 220
246 245 243 241 241 242 244 245 247 247 247 246 246 247 248 249 249 250 251 251 252 253 253 253 255 257 259 259 259 260 261 263 265 267 269 271 272 274 276 277 278 277 277 276 275 274 273 273 274 273 271 268 267 265 263 260 258 254 252 251 248 246 244 243 241 239 236 234 230 227 224 222 220 219
245 244 244 243 243 244 245 245 245 245 246 246 246 248 248 249 250 251 251 252 252 252 252 254 257 259 259 258 258 260 262 264 267 269 271 273 274 275 276 277 279 279 278 278 276 274 273 273 273 272 271 269 267 265 264 261 256 251 250 249 247 245 244 243 242 239 235 233 229 225 223 220 218 217
244 245 245 245 244 244 243 243 243 245 246 246 247 248 249 250 251 251 250 250 250 252 255 257 258 257 257 258 259 261 264 266 268 271 274 275 276 277 277 277 278 279 279 278 276 274 273 273 272 271 271 271 268 265 264 261 254 248 248 248 246 245 245 243 240 238 234 231 228 224 221 219 217 215
243 243 243 243 242 241 241 242 244 245 247 248 248 249 249 249 248 248 248 250 252 255 256 256 255 255 257 259 260 263 265 268 270 272 274 276 276 277 277 277 278 278 279 278 277 276 275 273 271 269 269 271 270 267 262 258 253 248 247 248 247 244 243 241 237 234 232 229 226 222 219 217 216 213
240 241 241 241 240 241 242 244 245 246 246 246 245 244 244 244 245 247 250 252 253 253 253 253 254 255 257 259 262 264 267 269 272 274 274 275 275 276 278 279 278 278 278 278 278 278 277 275 272 269 267 267 269 270 264 252 250 251 249 247 247 244 240 239 235 231 229 226 223 220 218 216 214 212
241 242 242 241 241 241 242 242 242 241 241 240 240 241 242 245 247 249 250 250 250 250 251 252 254 256 258 261 264 267 269 271 273 273 274 274 275 277 278 280 280 279 278 278 277 278 278 275 273 272 269 264 265 268 266 251 244 251 252 246 244 243 240 236 234 229 226 223 220 218 216 214 212 209
242 242 240 238 237 237 237 237 237 237 238 239 240 242 244 245 246 246 246 246 248 249 251 253 255 257 260 263 266 269 271 272 272 273 273 274 276 277 279 281 281 281 279 278 277 276 276 275 273 273 271 267 263 264 265 256 245 248 252 247 242 242 238 234 231 227 224 221 218 216 214 212 209 207
236 235 234 233 233 233 233 234 235 237 238 239 240 240 241 241 241 242 244 246 248 249 252 254 257 260 263 266 268 270 271 271 271 272 274 275 276 278 279 280 281 281 280 280 280 278 277 275 274 272 270 268 265 262 261 259 250 247 250 247 242 240 236 231 228 225 222 219 216 213 212 209 206 205
231 230 230 230 229 230 231 233 234 234 234 235 235 235 236 238 240 242 244 246 249 251 254 257 260 263 266 268 268 269 269 270 271 272 273 275 276 277 278 278 279 279 280 281 282 281 279 277 275 273 269 267 266 263 260 258 253 249 248 245 241 238 233 229 226 223 220 218 215 212 209 206 204 203
226 226 225 225 225 225 226 226 226 227 228 229 232 234 236 238 241 243 246 248 251 254 257 260 263 265 267 268 268 268 269 270 271 272 272 273 275 276 276 276 277 279 281 282 282 281 280 278 276 273 270 267 266 263 260 256 253 250 247 243 240 235 230 226 223 220 218 216 213 210 207 205 203 201
216 215 215 216 216 217 218 220 222 225 227 230 233 235 237 240 242 245 248 251 255 258 261 263 265 266 267 268 268 269 270 272 273 273 273 273 273 274 274 275 276 278 281 283 284 282 280 278 275 273 270 268 266 263 260 256 253 250 245 241 237 232 227 223 220 217 215 212 210 208 206 204 203 201
209 209 210 211 213 215 218 221 224 227 230 232 235 237 240 243 246 249 252 255 258 261 263 264 265 266 267 268 270 272 273 274 275 276 276 276 275 274 275 276 276 277 279 281 283 283 282 278 274 272 271 269 266 263 259 256 252 248 243 238 234 229 224 220 217 215 212 209 207 206 205 203 202 201
209 210 212 213 216 219 221 224 226 229 232 235 238 241 244 247 250 253 256 259 261 262 263 264 265 267 268 270 272 274 276 277 278 279 279 279 279 278 279 280 280 280 280 279 279 281 282 280 275 271 270 268 265 262 258 254 250 245 240 235 230 224 220 217 215 213 210 207 205 204 203 202 201 200
210 213 215 218 220 222 224 227 229 233 236 239 242 245 248 251 254 257 259 261 262 263 264 265 267 268 270 272 274 276 278 279 280 281 281 282 282 282 282 284 285 286 285 282 279 277 277 278 277 273 270 268 264 260 256 252 247 242 237 231 226 220 217 214 212 210 207 205 204 202 201 200 200 200
213 216 218 220 222 225 227 230 234 237 240 243 246 250 253 255 258 259 260 261 263 264 266 267 269 271 272 275 276 277 279 280 281 283 284 284 285 285 285 285 286 287 287 286 284 280 275 274 274 273 270 266 262 258 254 249 244 238 233 227 222 217 214 212 210 208 206 204 202 201 200 199 199 199
215 217 220 222 226 229 232 236 239 242 246 248 251 254 256 258 259 261 262 263 265 266 268 270 272 273 275 276 277 278 279 280 281 282 283 284 285 286 288 288 287 287 287 285 284 283 279 274 272 271 268 264 260 256 251 246 241 235 229 223 219 215 213 210 208 206 204 202 201 200 199 199 198 198
218 222 225 229 232 236 239 242 245 248 251 253 255 257 259 260 262 263 265 266 268 269 271 273 274 276 277 278 279 280 281 281 281 281 281 282 284 286 288 290 290 289 288 286 283 281 278 274 272 269 265 261 257 253 248 243 238 232 226 220 216 213 211 209 207 204 202 201 200 199 199 198 197 197
225 229 233 236 239 242 245 247 250 252 255 256 259 260 262 264 266 267 269 270 271 273 274 276 277 278 279 280 281 282 283 282 282 281 281 282 283 285 287 289 290 288 288 286 284 280 276 273 271 268 263 257 253 249 244 240 234 228 223 218 214 212 209 207 205 203 200 200 199 198 198 198 197 196
235 238 241 243 245 247 249 251 253 256 258 260 262 265 266 268 270 271 272 273 275 276 277 279 280 281 282 282 283 283 284 284 284 284 284 284 285 287 288 290 290 289 287 285 283 279 275 271 269 265 261 254 249 245 240 236 231 225 220 216 213 210 208 205 204 202 200 199 199 198 197 196 196 195
241 244 245 246 248 250 252 255 257 260 262 264 266 269 271 272 273 274 275 276 278 279 280 281 282 283 283 283 283 283 283 284 285 286 286 286 287 288 289 290 290 288 287 285 282 278 274 269 266 263 258 252 246 241 237 232 228 222 217 213 211 209 207 204 203 201 200 199 199 198 196 195 194 193
246 247 249 250 252 254 257 259 262 264 266 269 271 273 275 276 277 278 279 280 281 282 283 283 284 284 284 283 284 284 284 284 285 286 286 286 286 286 288 289 288 287 286 284 281 277 272 267 264 260 255 249 243 238 233 229 225 220 215 211 209 208 206 203 201 200 199 199 199 197 195 194 192 192
252 253 255 257 259 262 264 266 269 271 273 275 277 279 280 281 282 283 284 284 285 285 285 285 284 284 284 284 284 284 285 286 287 288 288 288 288 287 288 288 288 287 286 284 281 276 271 265 261 257 252 246 240 235 231 227 222 218 213 210 208 207 205 202 200 198 198 198 198 197 194 193 191 191
258 260 262 264 266 269 271 273 275 277 280 282 284 286 286 287 287 288 288 288 287 287 287 286 286 285 285 284 285 286 286 287 288 289 289 289 288 288 288 289 289 288 286 284 280 276 270 264 259 254 249 243 237 232 228 225 221 216 212 209 207 206 205 202 199 197 197 197 198 196 194 191 190 190
261 264 267 270 273 275 278 280 283 286 288 290 291 292 292 292 291 291 290 289 289 289 288 288 287 286 286 286 287 288 288 289 289 289 289 288 288 287 288 288 289 289 287 284 280 275 268 262 257 252 247 240 235 230 227 223 219 216 212 208 206 205 204 202 199 197 196 196 197 196 193 191 190 189
267 271 274 277 280 284 286 290 293 294 295 296 296 296 295 294 293 292 291 291 290 290 290 289 289 289 289 289 289 290 290 289 289 289 289 288 288 288 288 288 288 289 287 284 281 275 268 261 255 250 245 239 233 228 225 222 218 215 211 208 205 204 204 202 199 197 196 196 196 195 193 191 190 189
277 281 284 286 290 293 296 298 299 300 300 300 299 299 297 296 294 293 292 292 292 291 291 291 290 290 291 291 291 291 291 290 290 289 288 288 288 288 287 287 287 287 286 283 280 275 267 259 253 248 243 237 231 226 224 221 217 214 211 208 205 203 202 201 199 197 196 195 195 194 193 191 190 189
Height
10106 10109 10113 10116 10119 10119 10120 10121 10122 10124 10127 10130 10133 10136 10138 10141 10145 10146 10146 10144 10141 10139 10137 10135 10135 10138 10144 10150 10155 10158 10160 10159 10159 10161 10163 10164 10165 10165 10164 10163 10162 10161 10160 10159 10158 10159 10160 10161 10162 10163 10163 10162 10162 10162 10162 10164 10167 10169 10170 10172 10176 10179 10180 10186 10193 10197 10198 10200 10205 10211 10217 10224 10232 10242
10089 10093 10097 10101 10104 10106 10107 10108 10109 10110 10113 10116 10119 10122 10124 10128 10132 10133 10133 10134 10131 10128 10126 10123 10123 10124 10126 10132 10138 10142 10144 10145 10145 10147 10150 10152 10154 10154 10153 10150 10148 10146 10144 10143 10145 10146 10146 10146 10147 10148 10148 10148 10147 10147 10148 10149 10152 10153 10153 10155 10159 10162 10165 10169 10174 10179 10182 10183 10187 10193 10199 10206 10214 10224
10074 10077 10081 10084 10088 10090 10092 10094 10096 10098 10100 10102 10104 10107 10111 10115 10118 10119 10121 10123 10121 10116 10115 10114 10112 10112 10113 10116 10121 10124 10127 10129 10130 10133 10136 10140 10142 10143 10141 10138 10135 10131 10129 10129 10131 10132 10132 10131 10132 10133 10133 10133 10133 10133 10133 10134 10136 10138 10139 10140 10142 10146 10150 10153 10156 10162 10165 10166 10170 10177 10183 10189 10197 10206
10059 10062 10064 10067 10071 10074 10076 10080 10084 10086 10088 10089 10091 10093 10097 10101 10104 10105 10108 10112 10111 10106 10105 10103 10100 10099 10101 10104 10107 10108 10110 10113 10114 10117 10122 10126 10129 10130 10129 10126 10121 10117 10116 10117 10120 10120 10118 10117 10118 10119 10119 10119 10118 10118 10118 10119 10121 10122 10124 10126 10128 10131 10135 10138 10141 10145 10148 10150 10155 10161 10166 10172 10178 10187
10043 10046 10048 10051 10054 10057 10061 10067 10071 10073 10075 10076 10078 10080 10083 10087 10090 10092 10095 10099 10100 10098 10095 10091 10088 10087 10088 10092 10094 10095 10097 10099 10099 10102 10108 10113 10116 10117 10116 10112 10107 10103 10104 10106 10107 10107 10106 10104 10105 10106 10106 10105 10103 10103 10103 10104 10105 10107 10109 10111 10114 10117 10119 10123 10126 10129 10132 10135 10139 10146 10151 10155 10161 10169
10027 10030 10033 10036 10039 10042 10046 10052 10056 10059 10061 10062 10065 10067 10070 10074 10077 10079 10083 10086 10088 10088 10085 10080 10077 10075 10075 10078 10081 10082 10085 10088 10087 10089 10093 10098 10103 10104 10102 10098 10094 10091 10092 10094 10094 10093 10091 10091 10092 10093 10092 10090 10089 10088 10089 10090 10091 10092 10094 10096 10099 10102 10103 10107 10110 10113 10116 10119 10124 10131 10136 10139 10145 10154
10012 10015 10018 10021 10024 10027 10032 10037 10041 10044 10046 10049 10052 10055 10057 10060 10064 10066 10070 10074 10076 10076 10074 10070 10066 10063 10063 10065 10066 10068 10072 10076 10077 10077 10078 10083 10089 10089 10086 10084 10082 10079 10078 10080 10080 10078 10077 10078 10079 10079 10078 10076 10075 10075 10075 10076 10077 10079 10081 10082 10083 10085 10088 10090 10094 10097 10101 10104 10110 10116 10121 10124 10130 10139
9998 10001 10005 10007 10010 10014 10019 10023 10026 10029 10032 10036 10039 10042 10044 10047 10050 10053 10057 10061 10064 10064 10064 10060 10055 10051 10051 10052 10053 10055 10059 10063 10066 10066 10067 10070 10074 10073 10071 10070 10070 10066 10064 10064 10065 10064 10064 10064 10065 10065 10064 10063 10062 10061 10061 10062 10064 10066 10067 10067 10068 10069 10072 10075 10077 10081 10086 10090 10095 10101 10105 10109 10116 10124
9985 9988 9991 9994 9996 10001 10006 10010 10012 10014 10017 10021 10025 10029 10032 10034 10036 10040 10045 10048 10050 10052 10052 10050 10045 10040 10038 10039 10041 10043 10047 10052 10055 10054 10055 10059 10060 10058 10056 10056 10055 10053 10051 10051 10051 10051 10051 10051 10052 10051 10050 10049 10048 10048 10048 10049 10051 10052 10052 10052 10053 10054 10057 10060 10062 10066 10071 10076 10080 10085 10090 10095 10102 10109
9971 9976 9978 9980 9984 9989 9993 9995 9998 10001 10004 10008 10013 10016 10019 10020 10023 10028 10032 10034 10036 10039 10040 10039 10035 10030 10027 10028 10029 10030 10036 10043 10043 10041 10044 10047 10046 10044 10044 10043 10040 10038 10038 10038 10038 10038 10039 10038 10038 10038 10036 10035 10034 10034 10036 10038 10038 10038 10038 10038 10038 10039 10042 10045 10048 10051 10056 10061 10064 10070 10075 10081 10088 10094
9959 9963 9966 9969 9972 9976 9979 9981 9984 9988 9991 9995 10000 10003 10005 10007 10011 10016 10019 10021 10023 10025 10027 10026 10024 10021 10019 10017 10016 10019 10027 10032 10032 10031 10034 10035 10031 10029 10031 10032 10027 10024 10024 10025 10025 10026 10026 10026 10025 10023 10022 10021 10021 10023 10024 10025 10025 10025 10026 10024 10023 10024 10026 10030 10033 10037 10043 10046 10050 10056 10061 10067 10074 10080
9948 9951 9954 9957 9961 9964 9965 9967 9971 9975 9979 9983 9987 9990 9992 9995 9999 10004 10007 10009 10010 10012 10013 10014 10013 10013 10011 10007 10007 10011 10016 10020 10021 10021 10024 10025 10019 10015 10016 10017 10015 10014 10013 10012 10013 10012 10012 10013 10011 10008 10008 10008 10009 10011 10012 10012 10013 10012 10012 10010 10008 10009 10012 10017 10021 10025 10030 10033 10037 10043 10048 10054 10060 10066
9938 9941 9943 9946 9949 9951 9952 9955 9958 9962 9967 9971 9975 9977 9979 9984 9989 9992 9995 9997 9998 9999 10001 10002 10002 10003 10001 9999 9999 10002 10005 10009 10011 10010 10011 10013 10009 10005 10004 10000 9997 10001 10004 10003 10003 10000 9998 9999 9997 9995 9995 9995 9995 9998 9999 10000 10001 9999 9997 9994 9994 9996 10000 10004 10008 10011 10015 10018 10023 10029 10035 10041 10047 10054
9928 9930 9933 9935 9936 9938 9940 9942 9946 9950 9955 9959 9963 9965 9969 9973 9978 9981 9984 9985 9986 9988 9990 9991 9991 9992 9991 9991 9992 9993 9995 9999 10001 9999 9999 10000 9997 9996 9995 9988 9980 9984 9992 9996 9994 9988 9983 9984 9985 9983 9983 9982 9982 9984 9986 9986 9987 9985 9982 9981 9982 9984 9987 9990 9993 9997 10000 10004 10008 10015 10022 10028 10034 10042
9917 9919 9922 9923 9924 9926 9929 9931 9935 9939 9944 9948 9951 9955 9959 9963 9967 9970 9973 9974 9976 9978 9979 9980 9980 9982 9983 9983 9983 9984 9986 9989 9990 9989 9987 9987 9987 9985 9982 9977 9969 9968 9977 9985 9984 9976 9968 9969 9974 9971 9967 9968 9970 9972 9971 9971 9972 9971 9969 9969 9970 9972 9975 9977 9980 9983 9987 9991 9996 10002 10008 10015 10022 10030
9905 9908 9910 9911 9913 9916 9919 9921 9925 9929 9934 9937 9941 9945 9949 9953 9956 9959 9962 9964 9966 9968 9969 9970 9970 9972 9975 9974 9973 9975 9979 9979 9978 9977 9975 9975 9977 9974 9969 9965 9960 9958 9965 9971 9972 9965 9953 9954 9963 9960 9953 9955 9959 9958 9957 9956 9957 9958 9959 9959 9959 9960 9963 9964 9967 9971 9975 9979 9984 9990 9996 10003 10010 10018
9894 9898 9899 9900 9904 9907 9910 9913 9916 9920 9924 9927 9931 9935 9939 9943 9945 9949 9952 9955 9957 9958 9959 9960 9960 9963 9966 9965 9964 9967 9971 9970 9966 9965 9964 9964 9966 9963 9957 9953 9950 9949 9954 9960 9962 9955 9940 9940 9951 9949 9940 9943 9946 9944 9943 9943 9946 9949 9948 9948 9947 9947 9950 9951 9953 9958 9963 9967 9972 9978 9985 9991 9998 10005
9886 9889 9890 9893 9896 9899 9902 9905 9907 9910 9914 9918 9922 9926 9929 9932 9935 9939 9943 9945 9947 9949 9950 9951 9952 9954 9958 9957 9957 9959 9961 9959 9956 9954 9953 9953 9953 9951 9946 9942 9939 9939 9943 9949 9954 9946 9929 9927 9939 9938 9929 9930 9931 9929 9930 9933 9937 9939 9936 9935 9935 9934 9936 9938 9941 9946 9951 9955 9961 9967 9973 9980 9986 9993
9878 9882 9884 9886 9889 9890 9893 9896 9898 9902 9906 9910 9914 9916 9919 9923 9926 9931 9934 9936 9939 9940 9942 9943 9943 9946 9950 9950 9949 9949 9949 9948 9946 9944 9943 9943 9942 9939 9934 9930 9927 9927 9931 9938 9944 9936 9918 9917 9929 9927 9917 9918 9917 9914 9919 9924 9926 9927 9924 9921 9921 9921 9923 9926 9929 9934 9940 9944 9950 9956 9963 9969 9975 9982
9871 9874 9876 9879 9880 9881 9884 9888 9891 9895 9898 9902 9905 9907 9911 9915 9919 9923 9926 9928 9930 9932 9934 9935 9936 9938 9941 9941 9940 9939 9938 9937 9936 9935 9934 9933 9932 9929 9924 9919 9915 9915 9919 9926 9930 9925 9910 9908 9919 9916 9906 9906 9904 9901 9908 9915 9915 9914 9911 9908 9908 9909 9911 9916 9920 9926 9930 9934 9940 9946 9952 9958 9965 9971
9864 9866 9868 9871 9872 9874 9878 9882 9884 9887 9890 9893 9897 9901 9905 9908 9911 9915 9918 9920 9922 9924 9925 9927 9928 9930 9931 9931 9930 9929 9928 9928 9927 9925 9924 9922 9920 9918 9915 9911 9906 9903 9907 9913 9916 9912 9903 9901 9908 9907 9898 9894 9891 9891 9898 9903 9903 9901 9898 9895 9896 9899 9903 9909 9914 9918 9921 9925 9930 9936 9942 9948 9954 9961
9856 9859 9861 9863 9866 9869 9872 9875 9877 9880 9883 9887 9891 9895 9898 9901 9904 9907 9910 9912 9914 9916 9918 9920 9921 9921 9921 9920 9921 9920 9919 9919 9918 9916 9914 9911 9909 9907 9905 9905 9901 9895 9896 9902 9904 9901 9895 9893 9897 9897 9891 9883 9878 9881 9889 9892 9890 9889 9886 9884 9888 9892 9897 9902 9905 9908 9912 9916 9921 9927 9932 9938 9944 9953
9849 9852 9854 9857 9860 9863 9866 9869 9871 9875 9879 9882 9886 9889 9892 9895 9897 9900 9902 9905 9907 9909 9911 9912 9912 9912 9912 9912 9912 9912 9911 9911 9909 9908 9905 9902 9900 9897 9896 9896 9895 9889 9887 9891 9893 9890 9886 9885 9886 9887 9885 9875 9866 9869 9879 9882 9879 9876 9875 9876 9881 9886 9889 9892 9895 9898 9902 9907 9912 9918 9924 9930 9937 9946
9842 9845 9849 9852 9855 9858 9861 9864 9867 9871 9874 9877 9880 9883 9885 9887 9890 9893 9896 9899 9901 9902 9903 9903 9903 9904 9904 9904 9904 9904 9903 9902 9901 9899 9897 9894 9892 9890 9887 9886 9885 9882 9880 9881 9883 9880 9876 9875 9874 9876 9877 9872 9861 9858 9867 9873 9870 9865 9866 9871 9875 9877 9880 9882 9885 9889 9892 9897 9903 9910 9916 9923 9931 9940
9838 9842 9846 9849 9852 9854 9857 9860 9863 9866 9869 9872 9874 9876 9879 9882 9885 9888 9891 9892 9893 9894 9895 9895 9895 9896 9897 9896 9896 9896 9895 9893 9892 9890 9888 9886 9884 9882 9880 9878 9875 9873 9872 9872 9874 9873 9868 9865 9865 9865 9865 9864 9858 9854 9856 9862 9861 9857 9859 9865 9867 9868 9872 9875 9877 9881 9884 9888 9895 9902 9909 9917 9925 9934
9837 9840 9842 9845 9847 9850 9852 9855 9858 9861 9864 9866 9869 9872 9875 9878 9880 9882 9884 9885 9886 9886 9887 9888 9888 9889 9889 9889 9888 9887 9886 9885 9883 9882 9880 9878 9876 9875 9873 9871 9867 9864 9863 9863 9865 9865 9860 9856 9855 9857 9854 9852 9852 9850 9848 9851 9853 9851 9851 9856 9859 9860 9864 9867 9870 9873 9877 9881 9887 9894 9901 9910 9918 9927
9833 9835 9838 9840 9842 9845 9848 9851 9854 9857 9860 9863 9866 9869 9871 9872 9874 9875 9877 9878 9879 9880 9881 9881 9881 9881 9881 9881 9880 9879 9878 9877 9875 9874 9873 9870 9869 9867 9866 9864 9860 9857 9855 9854 9855 9855 9852 9848 9846 9848 9846 9842 9843 9844 9842 9842 9844 9844 9845 9849 9852 9854 9857 9859 9862 9867 9870 9875 9881 9888 9896 9905 9912 9919
9829 9832 9834 9837 9839 9842 9845 9848 9851 9854 9856 9859 9861 9863 9864 9866 9867 9869 9870 9871 9873 9874 9874 9874 9874 9874 9873 9873 9872 9871 9870 9869 9868 9867 9866 9864 9861 9860 9859 9858 9855 9851 9848 9847 9846 9845 9844 9841 9839 9838 9837 9835 9835 9835 9834 9834 9835 9837 9839 9842 9844 9847 9850 9853 9857 9862 9865 9870 9877 9884 9892 9899 9905 9912
9827 9830 9832 9834 9837 9839 9842 9845 9847 9849 9851 9853 9855 9857 9859 9861 9862 9863 9865 9866 9867 9868 9868 9867 9867 9867 9866 9865 9864 9864 9863 9862 9861 9860 9859 9858 9855 9854 9852 9851 9848 9845 9841 9839 9838 9837 9835 9834 9832 9830 9829 9829 9827 9827 9827 9827 9828 9830 9833 9835 9838 9841 9845 9848 9852 9856 9860 9866 9873 9880 9886 9891 9896 9903
9825 9827 9829 9831 9834 9836 9838 9840 9842 9844 9847 9849 9851 9853 9854 9856 9857 9859 9860 9861 9861 9861 9861 9861 9860 9860 9859 9857 9856 9855 9855 9854 9853 9853 9852 9851 9849 9847 9845 9843 9842 9840 9836 9832 9829 9828 9828 9827 9825 9822 9822 9821 9820 9820 9820 9820 9821 9824 9827 9829 9832 9835 9839 9843 9846 9850 9854 9860 9867 9874 9880 9885 9891 9898
9822 9824 9826 9828 9830 9832 9834 9836 9839 9841 9843 9845 9847 9848 9850 9852 9853 9854 9855 9855 9855 9855 9855 9854 9854 9853 9852 9850 9849 9848 9847 9847 9846 9845 9843 9842 9841 9840 9838 9835 9834 9833 9831 9828 9823 9820 9819 9819 9818 9816 9815 9814 9814 9813 9813 9814 9815 9818 9821 9824 9827 9830 9834 9837 9841 9844 9849 9854 9861 9867 9875 9881 9888 9895
9820 9822 9824 9826 9828 9830 9832 9834 9836 9838 9840 9841 9843 9845 9846 9847 9848 9849 9849 9849 9849 9849 9848 9847 9847 9846 9845 9844 9843 9842 9840 9839 9838 9837 9836 9834 9833 9832 9830 9828 9825 9825 9824 9822 9819 9815 9812 9811 9811 9810 9809 9808 9808 9807 9807 9808 9810 9813 9815 9818 9821 9825 9828 9832 9835 9839 9844 9849 9855 9861 9869 9876 9883 9891
9819 9821 9822 9824 9826 9828 9830 9832 9833 9835 9837 9839 9840 9841 9842 9843 9843 9843 9843 9843 9843 9842 9842 9841 9840 9839 9838 9838 9837 9836 9834 9833 9832 9830 9829 9827 9825 9824 9823 9821 9818 9816 9815 9813 9812 9811 9808 9805 9804 9804 9803 9802 9802 9802 9802 9803 9805 9807 9810 9813 9816 9819 9823 9826 9830 9834 9838 9843 9849 9856 9863 9870 9878 9887
9818 9820 9821 9823 9824 9826 9828 9829 9831 9833 9834 9835 9836 9837 9837 9838 9838 9838 9838 9837 9837 9836 9836 9835 9834 9834 9833 9832 9831 9830 9829 9828 9826 9824 9822 9821 9819 9817 9816 9815 9813 9811 9808 9806 9804 9803 9803 9800 9799 9798 9798 9797 9796 9796 9797 9798 9800 9802 9805 9808 9812 9814 9817 9821 9825 9830 9835 9840 9845 9852 9858 9865 9873 9883
9817 9819 9820 9821 9823 9824 9826 9827 9828 9830 9830 9831 9832 9832 9832 9832 9833 9833 9832 9832 9831 9831 9830 9829 9829 9828 9827 9826 9825 9824 9823 9822 9821 9818 9816 9815 9813 9811 9809 9808 9807 9805 9803 9801 9798 9797 9796 9795 9794 9793 9793 9792 9792 9792 9792 9794 9796 9798 9801 9804 9807 9810 9813 9817 9821 9826 9831 9836 9842 9848 9854 9861 9870 9879
9816 9817 9819 9820 9821 9822 9823 9824 9825 9826 9826 9827 9827 9827 9828 9828 9828 9828 9827 9827 9826 9825 9825 9824 9823 9823 9822 9821 9820 9819 9817 9816 9815 9813 9812 9810 9808 9807 9804 9802 9801 9799 9797 9795 9793 9792 9791 9790 9789 9789 9788 9788 9787 9787 9788 9789 9791 9794 9797 9800 9803 9806 9809 9813 9818 9823 9827 9832 9838 9844 9851 9858 9866 9876
9815 9816 9817 9818 9819 9820 9821 9821 9822 9822 9822 9823 9823 9823 9823 9823 9823 9823 9822 9822 9821 9820 9820 9819 9818 9817 9816 9815 9814 9813 9811 9810 9809 9808 9806 9805 9803 9801 9800 9797 9795 9794 9792 9790 9788 9787 9786 9785 9785 9784 9784 9783 9783 9783 9784 9786 9787 9790 9793 9796 9799 9802 9806 9810 9814 9819 9823 9828 9834 9840 9847 9855 9863 9872
9813 9814 9815 9816 9817 9817 9818 9818 9818 9819 9819 9819 9819 9819 9819 9819 9818 9818 9818 9817 9816 9816 9815 9814 9813 9812 9811 9810 9808 9807 9805 9804 9802 9801 9800 9799 9797 9795 9794 9792 9790 9788 9787 9786 9783 9782 9781 9781 9780 9780 9780 9779 9779 9779 9781 9782 9784 9786 9789 9792 9796 9799 9802 9807 9811 9816 9820 9825 9830 9836 9843 9852 9861 9870
9812 9812 9813 9813 9814 9814 9815 9815 9815 9815 9816 9816 9816 9815 9815 9815 9814 9814 9813 9813 9812 9811 9810 9809 9808 9807 9805 9804 9803 9802 9800 9799 9797 9795 9794 9793 9792 9790 9788 9787 9786 9784 9782 9781 9779 9778 9777 9777 9776 9776 9776 9776 9776 9776 9777 9778 9780 9783 9786 9789 9792 9796 9799 9803 9808 9813 9818 9823 9828 9834 9842 9851 9860 9869
9810 9810 9811 9811 9811 9812 9812 9812 9812 9812 9812 9812 9812 9812 9812 9811 9811 9810 9809 9808 9807 9806 9805 9804 9803 9801 9800 9799 9797 9796 9795 9793 9792 9791 9789 9787 9786 9785 9783 9782 9781 9779 9778 9776 9775 9773 9773 9773 9772 9772 9772 9772 9772 9773 9774 9775 9777 9780 9783 9786 9789 9793 9796 9800 9805 9811 9816 9822 9828 9835 9842 9850 9859 9868
9808 9808 9808 9809 9809 9809 9809 9809 9809 9809 9809 9809 9809 9809 9808 9807 9807 9806 9804 9803 9802 9801 9800 9799 9797 9796 9795 9793 9792 9790 9789 9788 9786 9785 9784 9782 9781 9780 9778 9777 9776 9774 9773 9772 9770 9769 9769 9769 9768 9768 9769 9769 9769 9769 9770 9772 9774 9777 9780 9783 9786 9790 9794 9798 9803 9808 9814 9820 9827 9833 9841 9849 9858 9866
9806 9806 9806 9807 9807 9807 9807 9807 9807 9807 9806 9806 9806 9805 9804 9803 9802 9801 9800 9798 9797 9796 9794 9793 9792 9791 9789 9788 9786 9785 9784 9782 9781 9780 9779 9777 9776 9774 9773 9772 9771 9770 9768 9767 9766 9765 9765 9765 9765 9765 9765 9765 9765 9766 9767 9769 9771 9774 9777 9780 9783 9787 9791 9795 9800 9806 9811 9818 9824 9831 9839 9847 9855 9864
9805 9805 9805 9805 9805 9805 9804 9804 9804 9804 9803 9803 9802 9801 9800 9799 9798 9796 9795 9793 9792 9790 9789 9788 9786 9785 9784 9782 9781 9780 9778 9777 9776 9775 9773 9772 9771 9770 9769 9767 9766 9765 9764 9763 9762 9761 9761 9761 9761 9761 9762 9762 9762 9763 9764 9766 9768 9771 9774 9777 9780 9784 9789 9794 9798 9804 9809 9815 9822 9830 9837 9844 9852 9861
9803 9803 9803 9803 9802 9802 9802 9801 9801 9801 9800 9799 9798 9797 9796 9795 9794 9792 9790 9789 9787 9785 9784 9782 9781 9779 9778 9776 9775 9774 9773 9772 9771 9770 9768 9767 9766 9765 9764 9763 9762 9761 9760 9759 9758 9758 9757 9757 9757 9758 9758 9759 9759 9760 9761 9763 9765 9768 9771 9774 9777 9782 9787 9792 9797 9802 9807 9813 9820 9827 9835 9843 9851 9859
9801 9801 9801 9800 9800 9800 9799 9799 9798 9798 9797 9796 9795 9794 9792 9791 9789 9788 9786 9784 9782 9781 9779 9777 9775 9774 9772 9771 9770 9769 9768 9767 9766 9765 9763 9762 9761 9760 9759 9758 9757 9756 9755 9754 9754 9754 9753 9753 9753 9754 9754 9755 9756 9757 9758 9760 9762 9764 9768 9771 9774 9779 9784 9789 9794 9799 9805 9811 9817 9825 9832 9840 9849 9858